GW6547 Weather Reports


time (UTC)temp
C
wind
direction
speed
KPH
gust
KPH
rain 1hr
cm
rain 24hr
cm
rain mn
cm
humidity
%
barometer
mb
20260504110710 8 136 1.6 1.6 0.00 0.00 0.00 87 1016.9
20260504110206 8 182 0.0 0.0 0.00 0.00 0.00 87 1016.9
20260504100130 8 180 0.0 0.0 0.00 0.00 0.00 87 1017.0
20260504081524 8 172 0.0 0.0 0.00 0.00 0.00 86 1016.2
20260504081019 8 175 0.0 0.0 0.00 0.00 0.00 87 1016.4
20260504080516 8 173 0.0 0.0 0.00 0.00 0.00 87 1016.4
20260504050334 10 170 0.0 0.0 0.00 0.00 0.00 78 1016.7
20260504045831 10 178 0.0 0.0 0.00 0.00 0.00 78 1016.7
20260504045326 10 173 0.0 0.0 0.00 0.00 0.00 78 1016.7
20260504044823 10 173 0.0 0.0 0.00 0.00 0.00 79 1017.0
20260504044320 10 179 0.0 0.0 0.00 0.00 0.00 78 1016.8
20260504043817 10 174 0.0 0.0 0.00 0.00 0.00 78 1016.9
20260504043314 10 180 0.0 0.0 0.00 0.00 0.00 78 1017.0
20260504042812 10 179 0.0 0.0 0.00 0.00 0.00 78 1016.9
20260504042308 10 166 0.0 0.0 0.00 0.00 0.00 77 1016.9
20260504041804 10 191 0.0 0.0 0.00 0.00 0.00 77 1016.9
20260504041300 10 175 0.0 0.0 0.00 0.00 0.00 77 1017.1
20260504040757 10 173 0.0 0.0 0.00 0.00 0.00 77 1017.1
20260504040255 10 179 0.0 0.0 0.00 0.00 0.00 77 1017.1
20260504035750 10 173 0.0 0.0 0.00 0.00 0.00 76 1017.1
20260504035247 10 174 0.0 0.0 0.00 0.00 0.00 77 1016.9
20260504034745 10 173 0.0 0.0 0.00 0.00 0.00 78 1017.2
20260504034242 10 171 0.0 0.0 0.00 0.00 0.00 76 1017.2
20260504033740 11 172 0.0 0.0 0.00 0.00 0.00 75 1017.0
20260504033237 11 179 0.0 0.0 0.00 0.00 0.00 74 1017.1
20260504032734 11 173 0.0 0.0 0.00 0.00 0.00 74 1017.3
20260504032231 11 175 0.0 0.0 0.00 0.00 0.00 72 1017.0
20260504031727 11 176 0.0 0.0 0.00 0.00 0.00 73 1017.3
20260504031225 11 178 0.0 0.0 0.00 0.00 0.00 73 1017.2
20260504030721 11 179 0.0 0.0 0.00 0.00 0.00 74 1017.1
20260504030218 11 173 0.0 0.0 0.00 0.00 0.00 72 1017.3
20260504025714 11 172 0.0 0.0 0.00 0.00 0.00 73 1017.1
20260504025211 11 174 0.0 0.0 0.00 0.00 0.00 71 1017.3
20260504024709 11 169 0.0 0.0 0.00 0.00 0.00 70 1017.0
20260504024205 11 174 0.0 0.0 0.00 0.00 0.00 70 1016.9
20260504023702 11 176 0.0 0.0 0.00 0.00 0.00 68 1017.0
20260504023157 11 176 0.0 0.0 0.00 0.00 0.00 69 1016.8
20260504022654 12 174 0.0 0.0 0.00 0.00 0.00 70 1016.9
20260504022150 12 172 0.0 0.0 0.00 0.00 0.00 68 1016.6
20260504021649 12 171 0.0 0.0 0.00 0.00 0.00 67 1016.6
20260504021145 12 173 0.0 0.0 0.00 0.00 0.00 66 1016.8
20260504020642 12 178 0.0 0.0 0.00 0.00 0.00 64 1016.7
20260504020137 12 177 0.0 0.0 0.00 0.00 0.00 64 1016.7
20260504015635 12 182 0.0 0.0 0.00 0.00 0.00 62 1016.4
20260504015131 12 174 0.0 0.0 0.00 0.00 0.00 62 1016.3
20260504014626 13 179 0.0 0.0 0.00 0.00 0.00 61 1016.4
20260504014124 13 173 0.0 0.0 0.00 0.00 0.00 61 1016.3
20260504013621 13 175 0.0 0.0 0.00 0.00 0.00 62 1016.4
20260504013118 13 169 0.0 0.0 0.00 0.00 0.00 60 1016.1
20260504012615 13 181 0.0 0.0 0.00 0.00 0.00 58 1016.1
20260504012113 13 175 0.0 0.0 0.00 0.00 0.00 59 1016.4
20260504011610 13 174 0.0 0.0 0.00 0.00 0.00 57 1015.9
20260504011106 13 177 0.0 0.0 0.00 0.00 0.00 60 1016.2
20260504010602 14 175 0.0 0.0 0.00 0.00 0.00 57 1016.0
20260504010058 14 172 0.0 0.0 0.00 0.00 0.00 56 1015.9
20260504005555 15 171 0.0 0.0 0.00 0.00 0.00 55 1015.8
20260504005052 15 173 0.0 0.0 0.00 0.00 0.00 54 1015.9
20260504004550 15 177 0.0 0.0 0.00 0.00 0.00 52 1015.9
20260504004047 15 175 0.0 0.0 0.00 0.00 0.00 51 1015.9
20260504003543 15 173 0.0 0.0 0.00 0.00 0.00 50 1015.9
20260504003040 15 174 0.0 0.0 0.00 0.00 0.00 50 1015.8
20260504002537 16 175 0.0 0.0 0.00 0.00 0.00 49 1015.8